EZY12VJ EGGW-LGSK

Flight info

Callsign EZY12VJ
Flight time 3h 11m
Altitude 37000
Route MATCH Q295 BRAIN P44 DAGGA M85 ITVIP L10 DVR UL9 KONAN UL607 SPI DCT ULNOK DCT VIBOM DCT NOMBO DCT RIDAR DCT RADIZ DCT ETOBI DCT MEDUX UM867 KOGAT DCT ERANA UL737 TSL UL617 IBIDI
Aircraft A20N/M-SDE2E3FGHIRWXY/LB1

Departure

Time 2026-05-08 10:31
Airport London Luton Airport (EGGW)

Arrival

Time 2026-05-08 13:42
Airport Skiathos Island National Airport (LGSK)
Time Latitude Longitude Altitude Speed Heading
2026-05-08 10:18 51.87849 -0.37898 534 ft 0 kts 45°
2026-05-08 10:22 51.87847 -0.37902 534 ft 2 kts 40°
2026-05-08 10:22 51.87835 -0.37918 534 ft 2 kts 64°
2026-05-08 10:23 51.87831 -0.37941 534 ft 2 kts 88°
2026-05-08 10:23 51.87833 -0.37965 534 ft 2 kts 114°
2026-05-08 10:23 51.87842 -0.37986 534 ft 2 kts 139°
2026-05-08 10:23 51.87849 -0.37994 534 ft 1 kts 154°
2026-05-08 10:24 51.87855 -0.37998 534 ft 0 kts 155°
2026-05-08 10:26 51.87854 -0.37998 534 ft 0 kts 155°
2026-05-08 10:26 51.87845 -0.37990 534 ft 3 kts 152°
2026-05-08 10:26 51.87812 -0.37951 534 ft 8 kts 136°
2026-05-08 10:26 51.87777 -0.37856 534 ft 10 kts 115°
2026-05-08 10:27 51.87746 -0.37741 534 ft 11 kts 114°
2026-05-08 10:27 51.87711 -0.37620 534 ft 12 kts 117°
2026-05-08 10:27 51.87680 -0.37526 534 ft 8 kts 123°
2026-05-08 10:27 51.87634 -0.37467 534 ft 9 kts 157°
2026-05-08 10:28 51.87569 -0.37446 534 ft 10 kts 181°
2026-05-08 10:28 51.87509 -0.37504 534 ft 11 kts 242°
2026-05-08 10:28 51.87483 -0.37626 534 ft 11 kts 254°
2026-05-08 10:28 51.87459 -0.37758 534 ft 12 kts 253°
2026-05-08 10:29 51.87434 -0.37901 534 ft 13 kts 256°
2026-05-08 10:29 51.87391 -0.38033 534 ft 13 kts 217°
2026-05-08 10:29 51.87310 -0.38097 534 ft 7 kts 202°
2026-05-08 10:29 51.87264 -0.38100 534 ft 3 kts 175°
2026-05-08 10:30 51.87246 -0.38076 534 ft 4 kts 104°
2026-05-08 10:30 51.87248 -0.38051 534 ft 0 kts 78°
2026-05-08 10:30 51.87301 -0.37747 534 ft 65 kts 75°
2026-05-08 10:31 51.87465 -0.36686 534 ft 127 kts 78°
2026-05-08 10:31 51.87712 -0.35121 813 ft 147 kts 77°
2026-05-08 10:31 51.88018 -0.33576 1377 ft 147 kts 75°
2026-05-08 10:31 51.88289 -0.31985 1933 ft 150 kts 79°
2026-05-08 10:32 51.88510 -0.30316 2475 ft 156 kts 79°
2026-05-08 10:32 51.88766 -0.28580 2957 ft 162 kts 77°
2026-05-08 10:32 51.89058 -0.26804 3394 ft 170 kts 76°
2026-05-08 10:32 51.89411 -0.24914 3821 ft 181 kts 76°
2026-05-08 10:33 51.89444 -0.22861 4210 ft 192 kts 105°
2026-05-08 10:33 51.88872 -0.20866 4670 ft 201 kts 130°
2026-05-08 10:33 51.87734 -0.19546 5161 ft 210 kts 154°
2026-05-08 10:33 51.86330 -0.18551 5431 ft 234 kts 157°
2026-05-08 10:34 51.84722 -0.17515 5412 ft 258 kts 158°
2026-05-08 10:34 51.83046 -0.16437 5326 ft 261 kts 158°
2026-05-08 10:34 51.81349 -0.15330 5249 ft 261 kts 157°
2026-05-08 10:34 51.79684 -0.14220 5178 ft 260 kts 156°
2026-05-08 10:35 51.78017 -0.13023 5109 ft 260 kts 154°
2026-05-08 10:35 51.76429 -0.11696 5098 ft 259 kts 140°
2026-05-08 10:35 51.75409 -0.09316 5233 ft 260 kts 109°
2026-05-08 10:35 51.75123 -0.06463 5403 ft 262 kts 86°
2026-05-08 10:36 51.75579 -0.03622 5514 ft 266 kts 69°
2026-05-08 10:36 51.76030 -0.00762 5174 ft 266 kts 86°
2026-05-08 10:36 51.76093 0.02194 5090 ft 259 kts 87°
2026-05-08 10:36 51.76271 0.05119 5129 ft 262 kts 84°
2026-05-08 10:37 51.76510 0.08019 5150 ft 262 kts 83°
2026-05-08 10:37 51.76758 0.10926 5151 ft 262 kts 83°
2026-05-08 10:37 51.77005 0.13849 5150 ft 262 kts 83°
2026-05-08 10:37 51.77247 0.16767 5154 ft 261 kts 83°
2026-05-08 10:38 51.77486 0.19673 5153 ft 262 kts 83°
2026-05-08 10:38 51.77720 0.22548 5153 ft 262 kts 83°
2026-05-08 10:38 51.77960 0.25500 5156 ft 263 kts 83°
2026-05-08 10:38 51.78199 0.28452 5428 ft 270 kts 83°
2026-05-08 10:39 51.78440 0.31438 6325 ft 270 kts 83°
2026-05-08 10:39 51.78676 0.34389 7178 ft 271 kts 82°
2026-05-08 10:39 51.78918 0.37422 7915 ft 277 kts 82°
2026-05-08 10:39 51.79168 0.40550 8643 ft 283 kts 82°
2026-05-08 10:40 51.79418 0.43694 9345 ft 288 kts 82°
2026-05-08 10:40 51.79675 0.46926 10056 ft 293 kts 82°
2026-05-08 10:40 51.79933 0.50165 10705 ft 300 kts 82°
2026-05-08 10:40 51.80205 0.53602 11072 ft 317 kts 82°
2026-05-08 10:41 51.80489 0.57225 11393 ft 335 kts 82°
2026-05-08 10:41 51.80786 0.61039 11691 ft 352 kts 82°
2026-05-08 10:41 51.81098 0.65046 12132 ft 363 kts 83°
2026-05-08 10:41 51.81412 0.69090 12804 ft 367 kts 83°
2026-05-08 10:42 51.81484 0.73191 13448 ft 369 kts 100°
2026-05-08 10:42 51.80649 0.77062 14101 ft 369 kts 122°
2026-05-08 10:42 51.79005 0.80200 14773 ft 368 kts 142°
2026-05-08 10:42 51.76789 0.82199 15408 ft 368 kts 162°
2026-05-08 10:43 51.74357 0.83371 16047 ft 370 kts 165°
2026-05-08 10:43 51.71881 0.84526 16635 ft 373 kts 165°
2026-05-08 10:43 51.69387 0.85706 17262 ft 376 kts 165°
2026-05-08 10:43 51.66869 0.86912 17860 ft 379 kts 165°
2026-05-08 10:44 51.64364 0.88121 18454 ft 381 kts 164°
2026-05-08 10:44 51.61811 0.89356 19006 ft 384 kts 164°
2026-05-08 10:44 51.59251 0.90596 19529 ft 388 kts 164°
2026-05-08 10:44 51.56668 0.91849 20036 ft 391 kts 164°
2026-05-08 10:45 51.54059 0.93114 20544 ft 394 kts 164°
2026-05-08 10:45 51.51431 0.94387 21037 ft 398 kts 164°
2026-05-08 10:45 51.48785 0.95668 21522 ft 401 kts 164°
2026-05-08 10:45 51.46107 0.96962 21994 ft 405 kts 164°
2026-05-08 10:46 51.43410 0.98265 22452 ft 408 kts 164°
2026-05-08 10:46 51.40685 0.99579 22899 ft 412 kts 164°
2026-05-08 10:46 51.37936 1.00903 23330 ft 415 kts 164°
2026-05-08 10:46 51.35173 1.02233 23747 ft 418 kts 164°
2026-05-08 10:47 51.32374 1.03597 24165 ft 421 kts 162°
2026-05-08 10:47 51.29736 1.05626 24549 ft 427 kts 148°
2026-05-08 10:47 51.27462 1.08696 24976 ft 431 kts 133°
2026-05-08 10:47 51.25668 1.12547 25396 ft 434 kts 124°
2026-05-08 10:48 51.24053 1.16585 25776 ft 437 kts 123°
2026-05-08 10:48 51.22434 1.20678 26129 ft 439 kts 123°
2026-05-08 10:48 51.20790 1.24782 26484 ft 442 kts 123°
2026-05-08 10:48 51.19123 1.28891 26834 ft 444 kts 124°
2026-05-08 10:49 51.17570 1.33161 27141 ft 447 kts 116°
2026-05-08 10:49 51.16473 1.37790 27448 ft 451 kts 106°
2026-05-08 10:49 51.15878 1.42628 27752 ft 454 kts 97°
2026-05-08 10:49 51.15601 1.47700 28073 ft 456 kts 95°
2026-05-08 10:50 51.15382 1.52722 28371 ft 458 kts 94°
2026-05-08 10:50 51.15165 1.57770 28653 ft 460 kts 94°
2026-05-08 10:50 51.14939 1.62810 28924 ft 461 kts 95°
2026-05-08 10:50 51.14697 1.67932 29183 ft 463 kts 96°
2026-05-08 10:51 51.14450 1.73006 29466 ft 464 kts 96°
2026-05-08 10:51 51.14195 1.78125 29850 ft 462 kts 96°
2026-05-08 10:51 51.13941 1.83169 30232 ft 460 kts 96°
2026-05-08 10:51 51.13683 1.88220 30599 ft 459 kts 96°
2026-05-08 10:52 51.13423 1.93253 30958 ft 458 kts 96°
2026-05-08 10:52 51.13161 1.98274 31268 ft 456 kts 96°
2026-05-08 10:52 51.12897 2.03283 31541 ft 456 kts 96°
2026-05-08 10:52 51.12627 2.08367 31786 ft 456 kts 96°
2026-05-08 10:53 51.12359 2.13386 32024 ft 457 kts 96°
2026-05-08 10:53 51.12088 2.18413 32257 ft 457 kts 96°
2026-05-08 10:53 51.11820 2.23368 32486 ft 457 kts 96°
2026-05-08 10:53 51.11543 2.28419 32715 ft 457 kts 96°
2026-05-08 10:54 51.11266 2.33458 32944 ft 457 kts 96°
2026-05-08 10:54 51.10988 2.38472 33166 ft 457 kts 96°
2026-05-08 10:54 51.10708 2.43488 33376 ft 457 kts 96°
2026-05-08 10:54 51.10425 2.48498 33587 ft 457 kts 96°
2026-05-08 10:55 51.10139 2.53493 33797 ft 457 kts 96°
2026-05-08 10:55 51.09841 2.58524 34011 ft 456 kts 97°
2026-05-08 10:55 51.09408 2.63515 34208 ft 456 kts 100°
2026-05-08 10:55 51.08802 2.68398 34387 ft 455 kts 104°
2026-05-08 10:56 51.08014 2.73250 34562 ft 454 kts 107°
2026-05-08 10:56 51.07143 2.78066 34710 ft 454 kts 108°
2026-05-08 10:56 51.06263 2.82881 34865 ft 454 kts 108°
2026-05-08 10:56 51.05383 2.87688 35000 ft 454 kts 108°
2026-05-08 10:57 51.04497 2.92521 35143 ft 454 kts 108°
2026-05-08 10:57 51.03621 2.97301 35257 ft 454 kts 107°
2026-05-08 10:57 51.01856 3.06913 35453 ft 456 kts 107°
2026-05-08 10:58 51.00072 3.16593 35649 ft 457 kts 108°
2026-05-08 10:58 50.98289 3.26219 35833 ft 458 kts 108°
2026-05-08 10:59 50.96475 3.35957 35981 ft 460 kts 108°
2026-05-08 10:59 50.94665 3.45622 36135 ft 461 kts 108°
2026-05-08 11:00 50.92831 3.55374 36281 ft 462 kts 108°
2026-05-08 11:00 50.90978 3.65158 36415 ft 463 kts 108°
2026-05-08 11:01 50.89101 3.74903 36565 ft 463 kts 108°
2026-05-08 11:01 50.87221 3.84602 36672 ft 464 kts 108°
2026-05-08 11:02 50.84376 3.99226 36797 ft 466 kts 109°
2026-05-08 11:03 50.82464 4.08989 36901 ft 467 kts 109°
2026-05-08 11:03 50.80527 4.18826 36990 ft 468 kts 109°
2026-05-08 11:04 50.78602 4.28558 37084 ft 469 kts 108°
2026-05-08 11:04 50.76656 4.38354 37099 ft 470 kts 108°
2026-05-08 11:05 50.74690 4.48204 37107 ft 470 kts 108°
2026-05-08 11:05 50.72721 4.58010 37104 ft 470 kts 109°
2026-05-08 11:06 50.70788 4.67835 37103 ft 470 kts 109°
2026-05-08 11:06 50.68889 4.77687 37108 ft 470 kts 109°
2026-05-08 11:07 50.66984 4.87474 37103 ft 470 kts 109°
2026-05-08 11:07 50.65028 4.97281 37107 ft 470 kts 109°
2026-05-08 11:08 50.63011 5.07050 37103 ft 470 kts 109°
2026-05-08 11:08 50.60982 5.16849 37100 ft 470 kts 109°
2026-05-08 11:09 50.58966 5.26568 37105 ft 470 kts 109°
2026-05-08 11:09 50.56931 5.36340 37106 ft 470 kts 109°
2026-05-08 11:10 50.54892 5.46087 37104 ft 470 kts 109°
2026-05-08 11:10 50.52852 5.55788 37101 ft 470 kts 110°
2026-05-08 11:10 50.51815 5.60695 36939 ft 469 kts 110°
2026-05-08 11:11 50.50781 5.65503 37029 ft 468 kts 111°
2026-05-08 11:11 50.48624 5.75110 37079 ft 471 kts 111°
2026-05-08 11:12 50.46428 5.84816 37083 ft 473 kts 111°
2026-05-08 11:12 50.44239 5.94484 37082 ft 472 kts 111°
2026-05-08 11:13 50.42028 6.04219 37078 ft 472 kts 111°
2026-05-08 11:13 50.39815 6.13924 37072 ft 472 kts 111°
2026-05-08 11:14 50.37607 6.23566 37077 ft 473 kts 111°
2026-05-08 11:14 50.35381 6.33240 37080 ft 473 kts 111°
2026-05-08 11:15 50.33148 6.42899 37076 ft 473 kts 111°
2026-05-08 11:15 50.30906 6.52555 37079 ft 473 kts 111°
2026-05-08 11:16 50.28646 6.62251 37077 ft 473 kts 111°
2026-05-08 11:16 50.26385 6.71903 37080 ft 473 kts 112°
2026-05-08 11:17 50.24122 6.81520 37079 ft 473 kts 112°
2026-05-08 11:17 50.21851 6.91126 37084 ft 473 kts 112°
2026-05-08 11:18 50.19573 7.00723 37090 ft 473 kts 112°
2026-05-08 11:18 50.17277 7.10349 37087 ft 473 kts 112°
2026-05-08 11:19 50.14994 7.19880 37094 ft 473 kts 112°
2026-05-08 11:19 50.12697 7.29427 37095 ft 473 kts 112°
2026-05-08 11:20 50.10388 7.38985 37096 ft 473 kts 112°
2026-05-08 11:20 50.08076 7.48517 37095 ft 473 kts 112°
2026-05-08 11:21 50.05759 7.58021 37092 ft 473 kts 112°
2026-05-08 11:21 50.03428 7.67546 37090 ft 473 kts 113°
2026-05-08 11:22 50.01080 7.77104 37090 ft 473 kts 113°
2026-05-08 11:22 49.98748 7.86550 37090 ft 472 kts 113°
2026-05-08 11:23 49.96385 7.96085 37092 ft 472 kts 113°
2026-05-08 11:23 49.94025 8.05558 37099 ft 472 kts 113°
2026-05-08 11:24 49.91649 8.15071 37105 ft 472 kts 113°
2026-05-08 11:24 49.89272 8.24542 37106 ft 473 kts 113°
2026-05-08 11:25 49.86797 8.33992 37100 ft 472 kts 116°
2026-05-08 11:25 49.83747 8.42941 37100 ft 470 kts 123°
2026-05-08 11:26 49.80060 8.51240 37101 ft 468 kts 130°
2026-05-08 11:26 49.76021 8.59059 37101 ft 467 kts 130°
2026-05-08 11:27 49.71970 8.66884 37100 ft 467 kts 131°
2026-05-08 11:27 49.67901 8.74738 37096 ft 468 kts 131°
2026-05-08 11:28 49.63867 8.82508 37101 ft 469 kts 131°
2026-05-08 11:28 49.59774 8.90369 37101 ft 469 kts 131°
2026-05-08 11:29 49.55730 8.98116 37095 ft 468 kts 131°
2026-05-08 11:29 49.51644 9.05924 37092 ft 467 kts 131°
2026-05-08 11:30 49.47607 9.13650 37088 ft 468 kts 129°
2026-05-08 11:30 49.43876 9.21901 37089 ft 470 kts 125°
2026-05-08 11:31 49.40309 9.30289 37089 ft 470 kts 125°
2026-05-08 11:31 49.36765 9.38598 37092 ft 470 kts 125°
2026-05-08 11:32 49.33181 9.46969 37095 ft 469 kts 125°
2026-05-08 11:32 49.29613 9.55273 37099 ft 469 kts 125°
2026-05-08 11:33 49.26036 9.63574 37101 ft 469 kts 125°
2026-05-08 11:33 49.22436 9.71903 37101 ft 469 kts 126°
2026-05-08 11:34 49.18845 9.80184 37102 ft 469 kts 126°
2026-05-08 11:34 49.15241 9.88471 37102 ft 469 kts 126°
2026-05-08 11:35 49.11640 9.96726 37103 ft 469 kts 126°
2026-05-08 11:35 49.07960 10.04964 37099 ft 467 kts 129°
2026-05-08 11:36 49.03826 10.12568 37098 ft 465 kts 135°
2026-05-08 11:36 48.99298 10.19514 37094 ft 465 kts 137°
2026-05-08 11:37 48.94742 10.26414 37087 ft 464 kts 137°
2026-05-08 11:37 48.90176 10.33324 37081 ft 465 kts 137°
2026-05-08 11:38 48.85589 10.40245 37081 ft 465 kts 137°
2026-05-08 11:38 48.80986 10.47177 37081 ft 465 kts 137°
2026-05-08 11:39 48.76405 10.54054 37078 ft 465 kts 137°
2026-05-08 11:39 48.71790 10.60966 37078 ft 466 kts 137°
2026-05-08 11:40 48.67209 10.67811 37082 ft 465 kts 139°
2026-05-08 11:40 48.62588 10.74694 37084 ft 465 kts 139°
2026-05-08 11:41 48.58097 10.81707 37084 ft 467 kts 134°
2026-05-08 11:41 48.53970 10.89271 37232 ft 468 kts 132°
2026-05-08 11:41 48.51920 10.93081 36905 ft 468 kts 132°
2026-05-08 11:42 48.49874 10.96879 37001 ft 467 kts 132°
2026-05-08 11:42 48.45777 11.04460 37068 ft 469 kts 132°
2026-05-08 11:43 48.41635 11.12103 37082 ft 470 kts 132°
2026-05-08 11:43 48.37511 11.19685 37082 ft 470 kts 132°
2026-05-08 11:44 48.33373 11.27276 37082 ft 470 kts 133°
2026-05-08 11:44 48.29221 11.34870 37079 ft 470 kts 133°
2026-05-08 11:45 48.25092 11.42401 37076 ft 470 kts 133°
2026-05-08 11:45 48.20935 11.49959 37072 ft 470 kts 133°
2026-05-08 11:46 48.16767 11.57520 37084 ft 471 kts 133°
2026-05-08 11:46 48.12605 11.65044 37078 ft 470 kts 134°
2026-05-08 11:47 48.08445 11.72549 37066 ft 470 kts 134°
2026-05-08 11:47 48.04274 11.80052 37064 ft 470 kts 134°
2026-05-08 11:48 48.00069 11.87589 37073 ft 470 kts 134°
2026-05-08 11:48 47.95882 11.95080 37071 ft 470 kts 134°
2026-05-08 11:49 47.91702 12.02535 37068 ft 469 kts 134°
2026-05-08 11:49 47.87515 12.09981 37067 ft 469 kts 134°
2026-05-08 11:50 47.83333 12.17399 37072 ft 470 kts 134°
2026-05-08 11:50 47.79113 12.24863 37078 ft 470 kts 134°
2026-05-08 11:51 47.74916 12.32267 37084 ft 470 kts 134°
2026-05-08 11:51 47.70709 12.39674 37078 ft 471 kts 134°
2026-05-08 11:52 47.66479 12.47100 37087 ft 470 kts 135°
2026-05-08 11:52 47.62235 12.54433 37098 ft 469 kts 137°
2026-05-08 11:53 47.57768 12.61434 37093 ft 468 kts 138°
2026-05-08 11:53 47.53305 12.68390 37104 ft 468 kts 139°
2026-05-08 11:54 47.48841 12.75333 37101 ft 467 kts 139°
2026-05-08 11:54 47.44341 12.82323 37105 ft 468 kts 139°
2026-05-08 11:55 47.39875 12.89238 37104 ft 467 kts 139°
2026-05-08 11:55 47.35377 12.96184 37101 ft 468 kts 139°
2026-05-08 11:56 47.30899 13.03084 37109 ft 467 kts 139°
2026-05-08 11:56 47.26419 13.09970 37113 ft 467 kts 139°
2026-05-08 11:57 47.21927 13.16852 37103 ft 467 kts 139°
2026-05-08 11:57 47.17442 13.23710 37086 ft 467 kts 139°
2026-05-08 11:58 47.12945 13.30563 37078 ft 467 kts 139°
2026-05-08 11:58 47.08434 13.37425 37093 ft 467 kts 139°
2026-05-08 11:59 47.01671 13.47675 37077 ft 466 kts 139°
2026-05-08 11:59 46.97168 13.54477 37089 ft 468 kts 139°
2026-05-08 12:00 46.92662 13.61268 37087 ft 467 kts 139°
2026-05-08 12:00 46.88108 13.68112 37102 ft 467 kts 140°
2026-05-08 12:01 46.83608 13.74859 37104 ft 466 kts 140°
2026-05-08 12:01 46.79063 13.81654 37118 ft 467 kts 140°
2026-05-08 12:02 46.74544 13.88394 37122 ft 466 kts 140°
2026-05-08 12:02 46.70034 13.95106 37115 ft 465 kts 140°
2026-05-08 12:03 46.65496 14.01839 37103 ft 465 kts 140°
2026-05-08 12:03 46.60961 14.08552 37110 ft 465 kts 140°
2026-05-08 12:04 46.56457 14.15200 37116 ft 465 kts 140°
2026-05-08 12:04 46.51897 14.21916 37113 ft 465 kts 139°
2026-05-08 12:05 46.47384 14.28547 37124 ft 465 kts 139°
2026-05-08 12:05 46.42849 14.35192 37107 ft 464 kts 139°
2026-05-08 12:06 46.38314 14.41822 37121 ft 465 kts 139°
2026-05-08 12:06 46.33757 14.48466 37103 ft 465 kts 140°
2026-05-08 12:07 46.29208 14.55081 37108 ft 464 kts 139°
2026-05-08 12:07 46.24659 14.61678 37102 ft 464 kts 139°
2026-05-08 12:08 46.20113 14.68257 37107 ft 463 kts 140°
2026-05-08 12:08 46.15567 14.74821 37081 ft 463 kts 140°
2026-05-08 12:09 46.11032 14.81350 37100 ft 464 kts 140°
2026-05-08 12:09 46.06455 14.87926 37088 ft 464 kts 140°
2026-05-08 12:10 46.01923 14.94418 37082 ft 464 kts 140°
2026-05-08 12:10 45.97351 15.00952 37091 ft 463 kts 140°
2026-05-08 12:11 45.92803 15.07437 37095 ft 462 kts 140°
2026-05-08 12:11 45.88221 15.13955 37089 ft 463 kts 140°
2026-05-08 12:12 45.83680 15.20398 37085 ft 462 kts 140°
2026-05-08 12:12 45.79130 15.26838 37091 ft 462 kts 140°
2026-05-08 12:13 45.74554 15.33301 37086 ft 461 kts 140°
2026-05-08 12:13 45.70007 15.39705 37082 ft 461 kts 140°
2026-05-08 12:14 45.65449 15.46111 37079 ft 460 kts 140°
2026-05-08 12:14 45.60880 15.52513 37070 ft 461 kts 140°
2026-05-08 12:15 45.56319 15.58892 37068 ft 460 kts 140°
2026-05-08 12:15 45.51761 15.65250 37066 ft 460 kts 140°
2026-05-08 12:16 45.47195 15.71605 37064 ft 459 kts 140°
2026-05-08 12:16 45.42613 15.77965 37060 ft 459 kts 140°
2026-05-08 12:17 45.38045 15.84295 37056 ft 459 kts 140°
2026-05-08 12:17 45.33492 15.90585 37065 ft 459 kts 140°
2026-05-08 12:18 45.28896 15.96923 37070 ft 460 kts 140°
2026-05-08 12:18 45.24305 16.03234 37063 ft 460 kts 140°
2026-05-08 12:19 45.19752 16.09482 37068 ft 460 kts 140°
2026-05-08 12:19 45.15155 16.15773 37060 ft 460 kts 140°
2026-05-08 12:20 45.10570 16.22037 37067 ft 459 kts 140°
2026-05-08 12:20 45.05951 16.28329 37063 ft 459 kts 140°
2026-05-08 12:21 45.01364 16.34560 37065 ft 460 kts 140°
2026-05-08 12:21 44.96768 16.40794 37058 ft 459 kts 140°
2026-05-08 12:22 44.92160 16.47030 37058 ft 459 kts 140°
2026-05-08 12:22 44.87552 16.53252 37054 ft 459 kts 140°
2026-05-08 12:23 44.82932 16.59473 37053 ft 459 kts 140°
2026-05-08 12:23 44.78310 16.65684 37053 ft 458 kts 141°
2026-05-08 12:24 44.73718 16.71842 37055 ft 458 kts 141°
2026-05-08 12:24 44.69094 16.78029 37055 ft 458 kts 141°
2026-05-08 12:25 44.64469 16.84203 37059 ft 458 kts 141°
2026-05-08 12:25 44.59903 16.90413 37063 ft 459 kts 137°
2026-05-08 12:26 44.55722 16.97219 37067 ft 462 kts 132°
2026-05-08 12:26 44.51763 17.04252 37070 ft 462 kts 132°
2026-05-08 12:27 44.47792 17.11292 37076 ft 461 kts 132°
2026-05-08 12:27 44.43804 17.18337 37075 ft 461 kts 132°
2026-05-08 12:28 44.39832 17.25337 37078 ft 461 kts 132°
2026-05-08 12:28 44.35847 17.32338 37074 ft 461 kts 132°
2026-05-08 12:29 44.31857 17.39337 37073 ft 461 kts 132°
2026-05-08 12:29 44.27860 17.46325 37073 ft 460 kts 132°
2026-05-08 12:30 44.23864 17.53298 37071 ft 460 kts 132°
2026-05-08 12:30 44.19873 17.60244 37067 ft 460 kts 132°
2026-05-08 12:31 44.15897 17.67146 37068 ft 459 kts 133°
2026-05-08 12:31 44.11900 17.74069 37069 ft 459 kts 133°
2026-05-08 12:32 44.07909 17.80965 37064 ft 458 kts 133°
2026-05-08 12:32 44.03920 17.87843 37058 ft 457 kts 133°
2026-05-08 12:33 43.99929 17.94706 37069 ft 457 kts 133°
2026-05-08 12:33 43.95921 18.01582 37064 ft 458 kts 133°
2026-05-08 12:34 43.91933 18.08407 37067 ft 458 kts 133°
2026-05-08 12:34 43.87915 18.15268 37065 ft 458 kts 133°
2026-05-08 12:35 43.83898 18.22109 37066 ft 458 kts 133°
2026-05-08 12:35 43.79873 18.28948 37069 ft 458 kts 133°
2026-05-08 12:36 43.75856 18.35758 37068 ft 458 kts 133°
2026-05-08 12:36 43.71845 18.42547 37069 ft 457 kts 133°
2026-05-08 12:37 43.67839 18.49306 37074 ft 457 kts 132°
2026-05-08 12:37 43.63794 18.56115 37072 ft 456 kts 133°
2026-05-08 12:38 43.59790 18.62842 37070 ft 456 kts 133°
2026-05-08 12:38 43.55766 18.69587 37068 ft 456 kts 133°
2026-05-08 12:39 43.51716 18.76356 37064 ft 457 kts 133°
2026-05-08 12:39 43.47698 18.83060 37059 ft 457 kts 133°
2026-05-08 12:40 43.43666 18.89770 37063 ft 457 kts 133°
2026-05-08 12:40 43.39613 18.96499 37067 ft 458 kts 133°
2026-05-08 12:41 43.35552 19.03226 37061 ft 457 kts 133°
2026-05-08 12:41 43.31482 19.09955 37063 ft 457 kts 133°
2026-05-08 12:42 43.27452 19.16597 37068 ft 457 kts 133°
2026-05-08 12:42 43.23375 19.23306 37078 ft 457 kts 133°
2026-05-08 12:43 43.19321 19.29963 37071 ft 456 kts 133°
2026-05-08 12:43 43.15259 19.36614 37077 ft 456 kts 133°
2026-05-08 12:44 43.11197 19.43253 37076 ft 456 kts 133°
2026-05-08 12:44 43.07109 19.49917 37067 ft 456 kts 133°
2026-05-08 12:45 43.03031 19.56549 37059 ft 456 kts 133°
2026-05-08 12:45 42.98931 19.63205 37063 ft 456 kts 133°
2026-05-08 12:46 42.94852 19.69809 37054 ft 456 kts 133°
2026-05-08 12:46 42.90751 19.76442 37065 ft 457 kts 134°
2026-05-08 12:47 42.86659 19.83040 37061 ft 457 kts 134°
2026-05-08 12:47 42.82561 19.89638 37071 ft 457 kts 134°
2026-05-08 12:48 42.78468 19.96209 37070 ft 457 kts 134°
2026-05-08 12:48 42.74346 20.02817 37067 ft 457 kts 133°
2026-05-08 12:49 42.70307 20.09459 37068 ft 458 kts 133°
2026-05-08 12:49 42.66257 20.16157 37071 ft 459 kts 133°
2026-05-08 12:50 42.62229 20.22799 37071 ft 459 kts 133°
2026-05-08 12:50 42.58138 20.29524 37070 ft 459 kts 133°
2026-05-08 12:51 42.52034 20.39525 37059 ft 460 kts 133°
2026-05-08 12:52 42.47977 20.46156 37067 ft 460 kts 133°
2026-05-08 12:52 42.41862 20.56119 37055 ft 460 kts 133°
2026-05-08 12:53 42.37768 20.62771 37061 ft 461 kts 133°
2026-05-08 12:53 42.33641 20.69464 37057 ft 461 kts 134°
2026-05-08 12:54 42.29540 20.76100 37051 ft 462 kts 133°
2026-05-08 12:54 42.25422 20.82750 37062 ft 463 kts 133°
2026-05-08 12:55 42.21318 20.89364 37065 ft 462 kts 133°
2026-05-08 12:55 42.17193 20.96000 37058 ft 462 kts 134°
2026-05-08 12:56 42.13057 21.02624 37061 ft 461 kts 134°
2026-05-08 12:56 42.08645 21.08841 37070 ft 459 kts 140°
2026-05-08 12:57 42.04010 21.14717 37058 ft 460 kts 140°
2026-05-08 12:57 41.99352 21.20616 37064 ft 461 kts 140°
2026-05-08 12:58 41.94686 21.26518 37065 ft 462 kts 140°
2026-05-08 12:58 41.90018 21.32415 37064 ft 462 kts 140°
2026-05-08 12:59 41.85337 21.38314 37058 ft 462 kts 140°
2026-05-08 12:59 41.80663 21.44196 37069 ft 462 kts 140°
2026-05-08 13:00 41.75982 21.50072 37069 ft 463 kts 140°
2026-05-08 13:00 41.71294 21.55944 37081 ft 464 kts 140°
2026-05-08 13:01 41.66591 21.61827 37063 ft 463 kts 141°
2026-05-08 13:01 41.61862 21.67726 37055 ft 464 kts 141°
2026-05-08 13:02 41.57165 21.73569 37066 ft 465 kts 141°
2026-05-08 13:02 41.52422 21.79464 37060 ft 466 kts 141°
2026-05-08 13:03 41.47702 21.85317 37316 ft 467 kts 141°
2026-05-08 13:03 41.45334 21.88247 37151 ft 466 kts 141°
2026-05-08 13:03 41.42964 21.91175 37109 ft 465 kts 141°
2026-05-08 13:04 41.38207 21.97049 37069 ft 465 kts 141°
2026-05-08 13:04 41.33473 22.02887 37064 ft 466 kts 141°
2026-05-08 13:05 41.28707 22.08749 37052 ft 467 kts 141°
2026-05-08 13:05 41.23938 22.14606 37063 ft 468 kts 141°
2026-05-08 13:06 41.19168 22.20451 37057 ft 469 kts 142°
2026-05-08 13:06 41.14302 22.26107 37058 ft 467 kts 145°
2026-05-08 13:07 41.09243 22.31542 37056 ft 467 kts 145°
2026-05-08 13:07 41.04219 22.36932 37052 ft 467 kts 145°
2026-05-08 13:08 40.99147 22.42370 37052 ft 468 kts 145°
2026-05-08 13:08 40.94099 22.47774 37062 ft 469 kts 145°
2026-05-08 13:09 40.89013 22.53209 37061 ft 469 kts 145°
2026-05-08 13:09 40.83957 22.58602 37054 ft 469 kts 146°
2026-05-08 13:10 40.78892 22.63991 37058 ft 469 kts 146°
2026-05-08 13:10 40.73815 22.69383 37063 ft 469 kts 146°
2026-05-08 13:11 40.68734 22.74769 37068 ft 469 kts 146°
2026-05-08 13:11 40.63644 22.80155 37076 ft 469 kts 146°
2026-05-08 13:12 40.58578 22.85505 37075 ft 469 kts 146°
2026-05-08 13:12 40.53499 22.90862 37083 ft 468 kts 146°
2026-05-08 13:13 40.48431 22.96186 37079 ft 469 kts 148°
2026-05-08 13:13 40.42893 23.00490 37075 ft 458 kts 162°
2026-05-08 13:14 40.37062 23.03441 36631 ft 448 kts 165°
2026-05-08 13:14 40.34110 23.04884 35807 ft 450 kts 165°
2026-05-08 13:14 40.31206 23.06305 34843 ft 455 kts 165°
2026-05-08 13:15 40.28240 23.07767 33809 ft 460 kts 165°
2026-05-08 13:15 40.25207 23.09266 32879 ft 464 kts 165°
2026-05-08 13:15 40.22233 23.10740 31993 ft 466 kts 165°
2026-05-08 13:15 40.19203 23.12244 31091 ft 468 kts 165°
2026-05-08 13:16 40.16138 23.13764 30179 ft 469 kts 165°
2026-05-08 13:16 40.13120 23.15261 29238 ft 471 kts 165°
2026-05-08 13:16 40.10034 23.16781 28242 ft 472 kts 164°
2026-05-08 13:16 40.06983 23.18283 27437 ft 469 kts 164°
2026-05-08 13:17 40.03946 23.19780 26687 ft 465 kts 164°
2026-05-08 13:17 40.00954 23.21257 26003 ft 461 kts 164°
2026-05-08 13:17 39.98002 23.22714 25323 ft 456 kts 164°
2026-05-08 13:17 39.95033 23.24178 24671 ft 451 kts 164°
2026-05-08 13:18 39.92117 23.25610 24024 ft 447 kts 164°
2026-05-08 13:18 39.89239 23.27022 23399 ft 443 kts 164°
2026-05-08 13:18 39.86371 23.28426 22785 ft 439 kts 164°
2026-05-08 13:18 39.83523 23.29824 22170 ft 435 kts 164°
2026-05-08 13:19 39.80715 23.31203 21519 ft 432 kts 164°
2026-05-08 13:19 39.77913 23.32576 20869 ft 430 kts 164°
2026-05-08 13:19 39.75117 23.33943 20227 ft 427 kts 164°
2026-05-08 13:19 39.72356 23.35290 19609 ft 424 kts 164°
2026-05-08 13:20 39.69622 23.36621 18991 ft 420 kts 165°
2026-05-08 13:20 39.66920 23.37935 18362 ft 417 kts 165°
2026-05-08 13:20 39.64216 23.39249 17815 ft 412 kts 165°
2026-05-08 13:20 39.61543 23.40549 17411 ft 404 kts 165°
2026-05-08 13:21 39.58966 23.41804 17027 ft 396 kts 165°
2026-05-08 13:21 39.56398 23.43055 16651 ft 388 kts 165°
2026-05-08 13:21 39.53898 23.44274 16237 ft 374 kts 165°
2026-05-08 13:21 39.51525 23.45432 15574 ft 362 kts 165°
2026-05-08 13:22 39.49206 23.46559 14851 ft 352 kts 165°
2026-05-08 13:22 39.46945 23.47653 14193 ft 340 kts 165°
2026-05-08 13:22 39.44803 23.48692 13635 ft 328 kts 166°
2026-05-08 13:22 39.42711 23.49702 13055 ft 317 kts 166°
2026-05-08 13:23 39.40671 23.50688 12481 ft 307 kts 166°
2026-05-08 13:23 39.38709 23.51641 11915 ft 299 kts 166°
2026-05-08 13:23 39.36781 23.52573 11231 ft 296 kts 166°
2026-05-08 13:23 39.34868 23.53496 10558 ft 292 kts 166°
2026-05-08 13:24 39.33001 23.54404 10033 ft 283 kts 166°
2026-05-08 13:24 39.31193 23.55286 9576 ft 273 kts 165°
2026-05-08 13:24 39.29452 23.56129 9124 ft 263 kts 165°
2026-05-08 13:24 39.27766 23.56945 8588 ft 259 kts 165°
2026-05-08 13:25 39.26091 23.57753 8000 ft 256 kts 165°
2026-05-08 13:25 39.24451 23.58546 7448 ft 252 kts 164°
2026-05-08 13:25 39.22816 23.59335 6887 ft 248 kts 163°
2026-05-08 13:25 39.21206 23.60113 6328 ft 245 kts 163°
2026-05-08 13:26 39.19626 23.60876 5765 ft 242 kts 162°
2026-05-08 13:26 39.18082 23.61624 5197 ft 240 kts 161°
2026-05-08 13:26 39.16640 23.62746 4577 ft 244 kts 138°
2026-05-08 13:26 39.15524 23.64344 4169 ft 240 kts 131°
2026-05-08 13:27 39.14468 23.66011 4064 ft 241 kts 132°
2026-05-08 13:27 39.13397 23.67682 4063 ft 242 kts 130°
2026-05-08 13:27 39.12687 23.69650 4038 ft 243 kts 97°
2026-05-08 13:27 39.12902 23.71767 4058 ft 244 kts 68°
2026-05-08 13:28 39.13991 23.73417 4062 ft 247 kts 28°
2026-05-08 13:28 39.15639 23.73869 4066 ft 243 kts 348°
2026-05-08 13:28 39.17111 23.72941 4068 ft 236 kts 308°
2026-05-08 13:28 39.17771 23.71103 4067 ft 228 kts 270°
2026-05-08 13:29 39.17491 23.69133 3967 ft 224 kts 243°
2026-05-08 13:29 39.16804 23.67348 3723 ft 223 kts 242°
2026-05-08 13:29 39.16068 23.65602 3475 ft 222 kts 236°
2026-05-08 13:29 39.15133 23.64023 3226 ft 222 kts 226°
2026-05-08 13:30 39.13989 23.62691 3036 ft 220 kts 215°
2026-05-08 13:30 39.12694 23.61666 3026 ft 220 kts 205°
2026-05-08 13:30 39.11271 23.60954 3023 ft 220 kts 195°
2026-05-08 13:30 39.09763 23.60576 3020 ft 221 kts 187°
2026-05-08 13:31 39.08216 23.60300 3010 ft 222 kts 197°
2026-05-08 13:31 39.06972 23.59204 2996 ft 225 kts 237°
2026-05-08 13:31 39.06560 23.57255 2820 ft 231 kts 275°
2026-05-08 13:31 39.06999 23.55297 2587 ft 232 kts 290°
2026-05-08 13:32 39.07603 23.53352 2338 ft 232 kts 290°
2026-05-08 13:32 39.08136 23.51415 2091 ft 230 kts 287°
2026-05-08 13:32 39.08606 23.49456 1840 ft 227 kts 285°
2026-05-08 13:32 39.09056 23.47520 1594 ft 224 kts 292°
2026-05-08 13:33 39.09996 23.46054 1482 ft 212 kts 335°
2026-05-08 13:33 39.11385 23.45844 1481 ft 202 kts 22°
2026-05-08 13:33 39.12541 23.46840 1524 ft 200 kts 43°
2026-05-08 13:33 39.13602 23.47908 1591 ft 185 kts 36°
2026-05-08 13:34 39.14665 23.48706 1536 ft 169 kts 29°
2026-05-08 13:34 39.15635 23.49363 1412 ft 147 kts 40°
2026-05-08 13:34 39.16071 23.50418 1274 ft 134 kts 94°
2026-05-08 13:34 39.15651 23.51440 1206 ft 134 kts 147°
2026-05-08 13:35 39.14779 23.51880 1153 ft 135 kts 163°
2026-05-08 13:35 39.13865 23.52183 1078 ft 136 kts 165°
2026-05-08 13:35 39.12949 23.52466 1011 ft 136 kts 166°
2026-05-08 13:35 39.12025 23.52750 1008 ft 136 kts 166°
2026-05-08 13:36 39.11101 23.53030 1004 ft 136 kts 166°
2026-05-08 13:36 39.10182 23.53310 1005 ft 136 kts 166°
2026-05-08 13:36 39.09251 23.53596 1006 ft 136 kts 166°
2026-05-08 13:36 39.08334 23.53876 1068 ft 135 kts 166°
2026-05-08 13:37 39.07424 23.54158 1244 ft 135 kts 166°
2026-05-08 13:37 39.06514 23.54443 1415 ft 134 kts 166°
2026-05-08 13:37 39.05597 23.54734 1496 ft 134 kts 166°
2026-05-08 13:37 39.04688 23.54865 1481 ft 134 kts 194°
2026-05-08 13:38 39.03941 23.54155 1506 ft 138 kts 231°
2026-05-08 13:38 39.03654 23.52998 1488 ft 141 kts 279°
2026-05-08 13:38 39.04132 23.51905 1523 ft 143 kts 309°
2026-05-08 13:38 39.04698 23.50856 1513 ft 142 kts 301°
2026-05-08 13:39 39.05197 23.49732 1507 ft 143 kts 298°
2026-05-08 13:39 39.05676 23.48628 1505 ft 143 kts 300°
2026-05-08 13:39 39.06310 23.47630 1500 ft 143 kts 323°
2026-05-08 13:39 39.07204 23.47135 1490 ft 141 kts
2026-05-08 13:40 39.08179 23.47313 1514 ft 140 kts 13°
2026-05-08 13:40 39.09130 23.47576 1506 ft 140 kts 13°
2026-05-08 13:40 39.10091 23.47810 1512 ft 141 kts 10°
2026-05-08 13:40 39.11074 23.47944 1477 ft 141 kts
2026-05-08 13:41 39.12051 23.48083 1337 ft 141 kts
2026-05-08 13:41 39.13011 23.48305 1191 ft 139 kts 17°
2026-05-08 13:41 39.13933 23.48656 1046 ft 138 kts 20°
2026-05-08 13:41 39.14843 23.49062 754 ft 138 kts 21°
2026-05-08 13:42 39.15741 23.49463 407 ft 133 kts 19°
2026-05-08 13:42 39.16593 23.49855 148 ft 130 kts 20°
2026-05-08 13:42 39.17430 23.50235 36 ft 121 kts 19°
2026-05-08 13:42 39.18016 23.50495 68 ft 41 kts 19°
2026-05-08 13:43 39.18113 23.50528 71 ft 2 kts 52°
2026-05-08 13:43 39.18087 23.50530 70 ft 7 kts 197°
2026-05-08 13:43 39.18021 23.50499 68 ft 12 kts 200°
2026-05-08 13:43 39.17937 23.50454 66 ft 13 kts 223°
2026-05-08 13:44 39.17899 23.50340 64 ft 14 kts 238°
2026-05-08 13:44 39.17819 23.50282 59 ft 10 kts 199°
2026-05-08 13:44 39.17780 23.50260 57 ft 5 kts 236°
2026-05-08 13:44 39.17787 23.50202 58 ft 6 kts 289°
2026-05-08 13:45 39.17792 23.50182 58 ft 0 kts 289°